Tracking 29781 objects as of 16-Oct-2024
HD Live streaming from Space Station
objects crossing your sky now

IRIDIUM 168

Track IRIDIUM 168 now!
10-day predictions
IRIDIUM 168 is classified as:


NORAD ID: 43924
Int'l Code: 2019-002C
Perigee: 783.2 km
Apogee: 786.4 km
Inclination: 86.4 °
Period: 100.4 minutes
Semi major axis: 7155 km
RCS: Unknown
Launch date: January 11, 2019
Source: United States (US)
Launch site: AIR FORCE WESTERN TEST RANGE (AFWTR)
Your satellite tracking list
Your tracking list is empty




NASA's NSSDC Master Catalog

Two Line Element Set (TLE):
1 43924U 19002C   24289.63184398  .00000391  00000-0  13248-3 0  9995
2 43924  86.3950 248.3394 0002265  86.2648 273.8806 14.34212484301604
Source of the keplerian elements: AFSPC